User: anonymous
Location: South Tamworth Observatory
(43.8246°N, 71.3026°W)
Time: 16:53:56
(UTC-04:00)
Language:

Cosmos 1844 - Orbit

View from above orbital plane
View from above orbital plane
View from above satellite
View from above satellite

Ground track
Ground track

The orbit data is extracted from the following two-line orbital elements,

1 17973U 87041A   14210.44412175 -.00000257  00000-0 -10931-3 0  7927
2 17973 070.9013 334.2301 0033622 268.1520 154.7079 14.13936639404191
Epoch (UTC): 29 July 2014 10:39:32
Eccentricity: 0.0033622
inclination: 70.9013°
perigee height: 821 km
apogee height: 870 km
right ascension of ascending node: 334.2301°
argument of perigee: 268.1520°
revolutions per day: 14.13936639
mean anomaly at epoch: 154.7079°
orbit number at epoch: 40419

The dashed part of the orbit path shows where the satellite is in the earth's shadow,  

DLR